AirNav   TITAN Aviation Fuels
 
 440 users online  

MY21 Kollar's Shoreview Marine Seaplane Base
Shoreview, Minnesota, USA

GOING TO SHOREVIEW?


FAA INFORMATION EFFECTIVE 15 JULY 2021

Location

FAA Identifier: MY21
Lat/Long: 45-01-59.8760N 093-07-30.7950W
45-01.997933N 093-07.513250W
45.0332989,-93.1252208
(estimated)
Elevation: 886 ft. / 270 m (estimated)
Variation: 03E (1985)
Time zone: UTC -5 (UTC -6 during Standard Time)
Zip code: 55117

Seaplane Base Operations

Seaplane Base use: Private use. Permission required prior to landing
Activation date: 10/1980
Control tower: no
ARTCC: MINNEAPOLIS CENTER
FSS: PRINCETON FLIGHT SERVICE STATION
Attendance: UNATNDD
Wind indicator: no
Segmented circle: no

Seaplane Base Communications

CTAF: 122.9
WX ASOS at STP (7 nm SE): 118.35 (651-312-8888)
WX AWOS-3 at ANE (8 nm NW): 120.625 (763-780-9025)
WX ASOS at MIC (10 nm W): 125.7 (763-531-2343)
WX ASOS at MSP (10 nm SW): PHONE 612-713-4174
WX AWOS-3 at SGS (11 nm S): 119.425 (651-457-8120)
WX AWOS-3 at 21D (12 nm E): 120.075 (651-779-5949)
WX ASOS at FCM (19 nm SW): 124.9 (952-941-4156)

Nearby radio navigation aids

VOR radial/distance  VOR name  Freq  Var
MSPr028/9.5MINNEAPOLIS VOR/DME115.3002E
GEPr117/12.5GOPHER VORTAC117.3006E
FCMr046/18.4FLYING CLOUD VOR/DME117.7001E
FGTr360/24.3FARMINGTON VORTAC115.7006E

 
NDB name  Hdg/Dist  Freq  Var  ID
PRINCETON144/37.836803EPNM .--. -. --

Seaplane Base Services

Parking: buoy

Runway Information

Runway NE/SW

Dimensions: length 7000 ft. / 2134 m, width unknown
Surface: water
RUNWAY NE  RUNWAY SW
Traffic pattern: leftleft
Obstructions: nonepline

Runway NNE/SSW

Dimensions: length 6500 ft. / 1981 m, width unknown
Surface: water
RUNWAY NNE  RUNWAY SSW
Traffic pattern: leftleft
Obstructions: nonepline

Seaplane Base Ownership and Management from official FAA records

Ownership: Privately-owned
Owner: JOLENE R M STIGLICH
454 W HORSESHOE DR
SHOREVIEW, MN 55126-3001
Phone 651-484-7331
CELL 651-485-3707.
Manager: JOLENE R M STIGLICH
454 W HORSESHOE DR
SHOREVIEW, MN 55126-3001
Phone 651-484-7331

Seaplane Base Operational Statistics

Aircraft based on the field: 1
Single engine airplanes: 1
    

Additional Remarks

OWNER DESIRES ARPT NOT TO BE CHARTED.
FOR CD CTC MINNEAPOLIS ARTCC AT 651-463-5588.

Instrument Procedures

There are no published instrument procedures at MY21.

Some nearby airports with instrument procedures:

KSTP - St Paul Downtown Airport Holman Field (7 nm SE)
KANE - Anoka County-Blaine Airport (Janes Field) (8 nm NW)
KMIC - Crystal Airport (10 nm W)
KMSP - Minneapolis-St Paul International/Wold-Chamberlain Airport (10 nm SW)
KSGS - South St Paul Municipal Airport-Richard E Fleming Field (11 nm S)
21D - Lake Elmo Airport (12 nm E)
KFCM - Flying Cloud Airport (19 nm SW)
 
Loc | Ops | Rwys | IFR | FBO | Links
Com | Nav | Svcs | Stats | Notes
Area around MY21 (Kollar's Shoreview Marine Seaplane Base)
 
Road maps at: MapQuest Bing Google
 
Aerial photo
No photo
 
Sectional chart

 
Airport distance calculator
Flying to Kollar's Shoreview Marine Seaplane Base? Find the distance to fly.

From to MY21

Sunrise and sunset
Times for 24-Jul-2021
 Local
(UTC-5)
 Zulu
(UTC)
Morning civil twilight05:1510:15
Sunrise05:5010:50
Sunset20:4801:48
Evening civil twilight21:2302:23

Current date and time
Zulu (UTC)  24-Jul-2021 10:00:37
Local (UTC-5)  24-Jul-2021 05:00:37
 
METAR
KSTP 
7nm SE 
240953Z AUTO 32012KT 10SM FEW022 OVC100 25/21 A2983 RMK AO2 PK WND 31027/0930 RAB00E18 SLP093 P0000 T02500211
KANE 
7nm NW 
240955Z AUTO 34003KT 10SM SCT110 23/21 A2983 RMK AO2
KMIC 
10nm W 
240953Z AUTO 32004KT 10SM BKN100 23/20 A2982 RMK AO2 PK WND 25026/0857 SLP090 T02330200
KMSP 
10nm SW 
240953Z 32013G21KT 10SM FEW021 OVC100 24/21 A2983 RMK AO2 RAE11 SLP095 P0001 T02440206
KSGS 
11nm S 
240955Z AUTO 29009KT 10SM CLR 25/22 A2983 RMK AO2 T02500222
K21D 
12nm E 
240955Z AUTO 34009G14KT 10SM SCT014 BKN020 OVC110 23/21 A2985 RMK AO2
KFCM 
19nm SW 
240953Z AUTO 31010G19KT 10SM -RA FEW060 SCT100 BKN120 24/19 A2982 RMK AO2 RAE07B52 SLP091 P0000 T02390189
TAF
KMSP 
10nm SW 
240520Z 2406/2512 22009KT P6SM BKN150 FM240700 22008KT 6SM -SHRA BR SCT060 OVC110 TEMPO 2407/2410 4SM -TSRA BR BKN040CB FM241100 27008KT P6SM FEW060 BKN120 FM241700 32012G20KT P6SM SKC FM250200 29005KT P6SM SKC
NOTAMs
Click for the latest NOTAMs
NOTAMs are issued by the DoD/FAA and will open in a separate window not controlled by AirNav.

 

 
 

Would you like to see your business listed on this page?

 If your business provides an interesting product or service to pilots, flight crews, aircraft, or users of the Kollar's Shoreview Marine Seaplane Base, you should consider listing it here.  To start the listing process, click on the button below
 
Add a business
 

Other Pages about Kollar's Shoreview Marine Seaplane Base

Update a link
 
Copyright © AirNav, LLC. All rights reserved. Privacy Policy  Contact